CAPE
0 0 0 0 0 0 0 0 0 0 0 0 0 0 0 0 0 0 0 25 57 17 157 192 321 296 236 149 171 188 53 51 11 12 32 10 4 39 24 1 4 4 10 16 2 6 2 2 7
0 0 0 0 0 0 0 0 0 0 0 0 0 0 0 0 0 0 0 35 47 28 167 171 229 224 175 88 35 17 3 0 4 9 10 19 6 40 27 7 6 8 8 3 3 3 3 6 3
0 0 0 0 0 0 0 0 0 0 0 0 0 0 0 0 0 0 0 0 0 17 78 110 122 122 24 0 0 0 0 1 5 8 5 15 7 7 23 5 6 14 7 11 5 5 5 8 4
0 0 0 0 0 0 0 0 0 0 0 0 0 0 0 0 0 0 0 0 0 18 47 61 102 11 0 0 0 0 0 3 4 12 8 4 4 8 12 5 13 10 13 6 5 6 6 3 0
0 0 0 0 0 0 0 0 0 0 0 0 0 0 0 0 0 0 0 0 0 16 16 0 36 17 0 0 0 0 0 2 3 5 2 4 6 7 13 3 6 2 4 3 2 5 3 0 0
0 0 0 0 0 0 0 0 0 0 0 0 0 0 0 0 0 0 0 1 3 4 5 0 0 11 12 3 0 0 0 0 2 3 2 3 6 8 18 6 8 7 7 1 2 1 0 0 0
0 0 0 0 0 0 0 0 0 0 0 0 0 0 0 0 0 0 0 1 3 6 3 0 0 0 5 4 0 0 0 0 0 0 4 1 4 3 14 6 0 4 3 1 0 0 0 0 0
0 0 0 0 0 0 0 0 0 0 0 0 0 0 0 0 0 0 0 0 0 0 7 0 0 0 0 6 0 0 0 0 0 0 0 2 5 6 4 9 0 1 0 0 0 0 0 0 0
0 0 0 0 0 0 0 0 0 0 0 0 0 0 0 0 0 0 0 0 0 0 0 0 0 0 0 0 0 0 0 0 0 0 0 0 2 2 2 0 1 0 0 0 0 0 0 0 0
0 0 0 0 0 0 0 0 0 0 0 0 0 0 0 0 0 0 0 0 0 0 0 0 0 0 0 0 0 0 0 0 0 0 0 0 0 0 0 0 4 2 4 0 0 0 0 0 0
0 0 0 0 0 0 0 0 0 0 0 0 0 0 0 0 0 0 0 0 0 0 0 0 0 0 0 0 3 6 0 0 0 0 0 0 0 0 0 0 0 0 0 0 0 0 0 0 0
0 0 0 0 0 0 0 0 0 0 0 0 0 0 0 0 0 0 0 0 0 0 0 0 0 0 0 0 0 0 0 0 0 0 0 0 0 0 0 0 0 0 0 0 0 0 0 0 0
0 0 0 0 0 0 0 0 0 0 0 0 0 0 0 0 0 0 0 0 0 0 0 0 0 0 0 0 0 0 0 0 0 0 0 0 0 0 0 0 0 0 0 0 0 0 0 0 0
0 0 0 0 0 0 0 0 0 0 0 0 0 0 0 0 0 0 0 0 0 0 0 0 0 0 0 0 0 0 0 0 0 0 0 0 0 0 0 0 0 0 0 0 0 0 0 0 0
0 0 0 0 0 0 0 0 0 0 0 0 0 0 0 0 0 0 0 0 0 0 0 0 0 0 0 0 0 0 0 0 0 0 0 0 0 0 0 0 0 0 0 0 0 0 0 0 0
0 0 0 0 0 0 0 0 0 0 0 0 0 0 0 0 0 0 0 0 0 0 0 0 0 0 0 0 0 0 0 0 0 0 0 0 0 0 0 0 0 0 0 0 0 0 0 0 0
1 0 0 0 0 0 0 0 0 0 0 0 0 0 0 0 0 0 0 0 0 0 0 0 0 0 0 0 0 0 0 0 0 0 0 0 0 0 0 0 0 0 0 0 0 0 0 0 0
4 0 0 0 0 0 0 0 0 0 0 0 0 0 0 0 0 0 0 0 0 0 0 0 0 0 0 0 0 0 0 0 0 0 0 0 0 0 0 0 0 0 0 0 0 0 0 0 0
10 11 2 0 0 0 0 0 0 0 0 0 0 0 0 0 0 0 0 0 0 0 0 0 0 0 0 0 0 0 0 0 0 0 0 0 0 0 0 0 0 0 0 0 0 0 0 0 0
11 3 0 0 0 1 0 0 0 0 0 0 0 0 0 0 0 0 0 0 0 0 0 0 0 0 0 0 0 0 0 0 0 0 0 0 0 0 0 0 0 0 0 0 0 0 0 0 0
5 6 0 1 0 0 0 0 0 0 0 0 0 0 0 0 0 0 0 0 0 0 0 0 7 8 3 0 0 0 0 0 0 0 0 0 0 0 0 0 0 0 0 0 0 0 0 0 0
0 0 12 0 1 0 1 0 0 0 0 0 0 0 0 0 0 0 0 0 0 0 0 11 4 18 1 0 0 0 0 0 0 0 0 0 0 0 0 0 0 0 0 0 0 0 0 0 0
0 0 12 23 20 10 0 4 0 0 0 0 0 0 0 0 0 0 0 0 0 0 0 14 19 16 28 16 2 0 0 0 0 0 0 0 0 0 0 0 0 0 0 0 0 0 0 0 0
43 22 18 20 7 9 0 0 0 0 0 0 0 0 0 0 0 0 0 0 0 0 0 2 28 16 30 31 6 0 0 0 0 0 0 0 0 0 0 0 0 0 0 0 0 0 0 0 0
22 7 9 18 11 5 0 0 0 0 0 0 0 0 0 0 0 0 0 0 0 0 0 0 17 24 28 25 9 1 0 0 0 0 0 0 0 0 0 0 0 0 0 0 0 0 0 0 0
0 10 7 1 0 0 0 2 0 0 0 0 0 0 0 0 0 0 0 0 0 0 0 0 0 27 63 38 16 5 0 0 0 0 0 0 0 0 0 0 0 0 0 0 0 0 0 0 0
0 2 0 19 7 5 0 0 0 0 0 0 0 0 0 0 0 0 0 0 0 0 0 0 0 1 54 76 39 5 16 24 13 0 0 0 0 0 0 0 0 0 0 0 0 0 0 0 0
0 0 0 24 3 1 0 0 0 0 0 0 0 0 0 0 0 0 0 0 0 0 0 0 0 0 21 55 52 29 29 39 31 7 0 0 0 0 0 0 0 0 0 0 0 0 0 0 1
0 2 12 21 19 26 0 0 0 0 0 0 0 0 0 0 0 0 0 0 0 0 0 0 0 0 0 20 53 47 47 55 40 19 0 0 0 0 0 0 0 0 0 0 0 0 0 0 1
0 0 1 41 0 0 1 0 0 0 0 0 0 0 0 0 0 0 0 0 0 0 0 0 0 0 0 0 0 16 29 50 54 28 10 3 0 0 0 0 0 0 0 0 0 0 0 1 1
CIN
0 0 0 0 0 0 0 0 0 0 0 0 0 0 0 0 0 0 0 -101 -84 -97 -36 -32 -13 -6 -14 -10 -11 -4 -73 -79 -6 -3 -4 -3 0 -6 -12 -10 -2 -1 -1 -1 0 0 0 0 0
0 0 0 0 0 0 0 0 0 0 0 0 0 0 0 0 0 0 0 -101 -82 -104 -36 -25 -18 -10 -15 -33 -69 -156 -318 0 -2 -1 -2 -2 0 -3 -10 -7 -2 0 -1 -1 -1 -1 -1 0 0
0 0 0 0 0 0 0 0 0 0 0 0 0 0 0 0 0 0 0 0 0 -85 -63 -30 -14 -12 -58 0 0 0 0 0 0 -1 -1 -2 -2 -7 -10 -4 -1 -5 -1 -1 0 -1 0 0 0
0 0 0 0 0 0 0 0 0 0 0 0 0 0 0 0 0 0 0 0 0 -46 -64 -48 -11 -32 0 0 0 0 0 0 -1 -2 -1 -1 -1 -6 -6 -8 -5 -2 -1 0 0 -1 0 0 0
0 0 0 0 0 0 0 0 0 0 0 0 0 0 0 0 0 0 0 0 -5 -50 -93 0 -43 -41 0 0 0 0 0 -3 0 -1 0 -1 -1 -3 -10 -7 -3 0 -1 0 0 0 0 0 0
0 0 0 0 0 0 0 0 0 0 0 0 0 0 0 0 0 0 0 -13 -20 -12 -26 0 0 -32 -79 -4 0 0 0 0 -1 0 0 0 -1 -2 -13 -10 -4 -2 -2 0 0 0 0 0 0
0 0 0 0 0 0 0 0 0 0 0 0 0 0 0 0 0 0 0 -14 -12 -7 -20 0 0 0 -2 -2 0 0 0 0 0 0 0 0 -1 -1 -12 -10 0 -1 0 0 0 0 0 0 0
0 0 0 0 0 0 0 0 0 0 0 0 0 0 0 0 0 0 0 0 0 0 -26 0 0 0 0 -3 0 0 0 0 0 0 0 -1 -2 -2 -3 -5 0 -2 0 0 0 0 0 0 0
0 0 0 0 0 0 0 0 0 0 0 0 0 0 0 0 0 0 -146 0 0 0 0 0 0 0 0 0 0 0 0 0 0 0 0 0 -2 -2 -2 0 -4 0 0 0 0 0 0 0 0
0 0 0 0 0 0 0 0 0 0 0 0 0 0 0 0 0 0 0 0 0 0 0 0 0 0 0 0 0 0 0 0 0 0 0 0 0 0 0 0 -11 -4 -6 0 0 0 0 0 0
0 0 0 0 0 0 -4 -2 0 0 0 0 0 0 0 0 0 0 0 -12 0 0 0 0 0 0 0 -1 -22 -21 0 0 0 0 0 0 0 0 0 0 -1 0 0 0 0 0 0 0 0
0 0 0 0 0 0 0 0 0 0 0 0 0 0 0 0 0 0 0 0 0 0 0 0 0 0 0 0 0 0 0 0 0 0 0 0 0 0 0 0 0 0 0 0 0 0 0 0 0
0 0 0 0 0 0 0 0 0 0 0 0 0 0 0 0 0 0 0 0 0 0 0 0 0 0 0 0 0 0 0 0 0 0 0 0 0 0 0 0 0 0 0 0 0 0 0 0 0
0 0 0 0 0 0 0 0 0 0 0 0 0 0 0 0 0 0 0 0 0 0 0 0 0 0 0 0 0 0 0 0 0 0 0 0 0 0 0 0 0 0 0 0 0 0 0 0 0
0 0 0 0 0 0 0 0 0 0 0 0 0 0 0 0 0 0 0 0 0 0 0 0 0 0 0 0 0 0 0 0 0 0 0 0 0 0 0 0 0 0 0 0 0 0 0 0 0
0 0 0 0 0 0 0 0 0 0 0 0 0 0 0 0 0 0 0 0 0 0 0 0 0 0 0 0 0 0 0 0 0 0 0 0 0 0 0 0 0 0 0 0 0 0 0 0 0
-2 0 0 0 0 0 0 0 0 0 0 0 0 0 0 0 0 0 0 0 0 0 0 0 0 0 0 0 0 0 0 0 0 0 0 0 0 0 0 0 0 0 0 0 0 0 0 0 0
-2 0 -4 0 0 0 0 0 0 0 0 0 0 0 0 0 0 0 0 0 0 0 0 0 0 0 0 0 0 0 0 0 0 0 0 0 0 0 0 0 0 0 0 0 0 0 0 0 0
-3 -4 -3 -2 0 0 -9 0 0 0 0 0 0 0 0 0 0 0 0 0 0 0 0 0 0 0 0 0 0 0 0 0 0 0 0 0 0 0 0 0 0 0 0 0 0 0 0 0 0
-1 -1 -1 0 0 -2 -1 0 0 0 0 0 0 0 0 0 0 0 0 0 0 0 0 0 0 0 0 0 0 0 0 0 0 0 0 0 0 0 0 0 0 0 0 0 0 0 0 0 0
-1 -1 0 -2 0 0 0 0 0 0 0 0 0 0 0 0 0 0 0 0 0 0 0 0 -304 -329 -342 0 0 0 0 0 0 0 0 0 0 0 0 0 0 0 0 0 0 0 0 0 0
-2 0 -4 0 -7 0 -3 0 0 0 0 0 0 0 0 0 0 0 0 0 0 0 0 -296 -303 -320 -282 0 0 0 0 0 0 0 0 0 0 0 0 0 0 0 0 0 0 0 0 0 0
0 -1 -4 -7 -1 -1 0 -2 0 0 0 0 0 0 0 0 0 0 0 0 0 0 0 -301 -280 -311 -336 -338 -225 0 0 0 0 0 0 0 0 0 0 0 0 0 0 0 0 0 0 0 0
-32 -4 -4 -6 -5 -1 0 0 0 0 0 0 0 0 0 0 0 0 0 0 0 0 0 -191 -284 -311 -310 -304 -329 0 0 0 -1 0 0 0 0 0 0 0 0 0 0 0 0 0 0 0 0
-14 -6 -2 -2 -3 -4 0 -2 0 0 0 0 0 0 0 0 0 0 0 0 0 0 0 0 -276 -279 -293 -300 -299 -243 0 0 0 0 0 0 0 0 0 0 0 0 0 0 0 0 0 0 0
-1 -10 -3 -4 -1 0 0 -18 0 0 0 0 0 0 0 0 0 0 0 0 0 0 0 0 0 -301 -266 -276 -315 -313 0 0 0 0 0 0 0 0 0 0 0 0 0 0 0 0 0 0 0
0 -6 0 -8 -19 -14 0 0 0 0 0 0 0 0 0 0 0 0 0 0 0 0 0 0 0 -155 -253 -249 -251 -271 -271 -273 -321 0 0 0 0 0 0 0 0 0 0 0 0 0 0 0 0
-2 0 -3 -8 -2 -3 0 0 0 0 0 0 0 0 0 0 0 0 0 0 0 0 0 0 0 0 -314 -246 -216 -210 -239 -261 -269 -264 0 0 0 0 0 0 0 0 0 0 0 0 0 0 0
0 -1 -3 -3 -13 -4 0 0 0 0 0 0 0 0 0 0 0 0 0 0 0 0 0 0 0 0 0 -352 -243 -218 -202 -219 -221 -235 -17 0 0 0 0 0 0 0 0 0 0 0 -1 0 0
0 0 -13 -2 0 -1 -1 0 0 0 0 0 0 0 0 0 0 0 0 0 0 0 0 0 0 0 0 0 -8 -322 -250 -234 -219 -253 -239 -252 0 0 0 0 0 0 0 0 0 0 0 0 0
Wind_Speed
28 28 26 19 17 17 17 19 17 18 20 21 22 23 22 21 19 16 17 17 17 17 17 19 20 7 10 9 9 10 12 13 13 13 14 15 16 16 17 16 10 11 13 14 16 18 20 20 22
28 27 19 18 15 16 16 17 18 18 18 19 20 22 21 21 19 18 20 19 16 16 16 15 14 10 8 7 8 9 9 10 12 13 13 16 15 15 17 16 12 13 14 15 17 18 19 20 21
27 24 19 18 16 15 13 16 16 17 17 18 19 20 20 20 18 18 17 18 17 14 15 16 11 9 7 7 8 9 11 12 12 13 14 14 14 14 16 13 12 12 13 14 16 17 18 20 20
23 19 18 17 16 17 15 15 15 16 18 18 18 19 20 19 16 15 17 17 16 13 13 13 11 9 7 7 8 11 12 12 12 13 14 15 16 15 16 15 13 12 13 14 16 17 19 20 20
20 17 18 19 19 16 15 15 16 15 15 16 17 17 18 18 16 16 15 16 15 14 10 10 9 8 7 7 8 10 11 11 11 12 15 16 16 14 14 13 13 13 14 15 17 17 17 18 19
20 18 18 19 19 21 16 15 17 18 14 13 17 16 17 14 13 13 13 14 13 12 11 7 8 7 5 6 7 8 10 10 10 12 14 16 16 15 14 13 13 12 14 15 15 15 16 17 18
18 19 16 21 23 23 17 14 16 16 16 17 14 18 15 12 11 11 11 11 11 10 10 7 5 5 5 4 5 6 8 9 10 11 12 14 14 15 11 13 14 13 13 13 13 14 16 17 17
18 18 19 19 22 25 16 18 16 17 18 18 16 17 15 9 8 7 10 9 9 9 8 8 5 3 4 3 3 4 6 6 8 10 11 12 11 11 10 10 11 10 9 10 12 13 14 15 16
18 21 21 20 20 23 17 18 18 16 16 17 18 18 16 6 7 6 5 6 6 6 7 6 5 3 2 2 3 2 4 4 4 6 7 7 9 10 9 6 7 7 8 10 11 12 13 14 15
18 21 20 20 24 27 21 20 17 20 19 18 18 17 10 6 4 3 4 3 2 3 4 3 5 3 2 1 1 3 2 3 2 3 4 7 9 9 8 6 6 7 7 8 8 10 11 12 14
21 25 24 27 28 26 25 23 21 19 21 19 20 15 9 9 6 6 4 10 2 1 3 2 3 3 3 3 2 3 2 1 2 1 3 4 6 8 7 5 5 6 6 7 7 8 9 10 11
30 26 27 29 30 29 30 26 27 24 22 22 23 18 8 10 9 9 9 9 10 4 4 2 3 4 5 7 6 4 3 3 3 1 3 3 4 7 7 6 5 4 5 5 6 6 7 8 9
34 32 29 30 31 31 30 30 30 29 27 27 24 18 14 12 12 11 10 10 11 12 7 5 4 5 6 9 10 8 6 5 5 3 3 3 4 6 4 5 6 5 5 5 4 4 5 7 8
29 29 30 30 32 33 35 33 29 28 26 30 25 24 18 16 15 15 13 14 13 15 11 8 7 7 7 10 10 12 10 8 7 7 6 6 4 4 3 3 3 4 4 4 2 2 3 6 7
30 38 36 32 30 33 33 40 34 30 29 31 28 27 23 18 17 16 15 14 15 18 16 12 10 9 9 9 11 12 13 13 11 10 8 8 7 6 6 5 4 3 2 2 1 2 4 5 5
34 36 44 34 32 32 31 48 33 29 31 32 31 27 26 26 23 20 16 15 16 21 20 16 12 11 10 11 11 13 15 15 14 13 11 10 9 8 8 8 7 5 4 3 4 4 6 5 5
35 46 43 42 32 35 34 50 38 30 32 36 35 33 30 28 26 24 19 17 17 19 21 20 16 14 12 11 12 12 14 15 16 16 14 13 12 11 10 9 9 7 7 6 5 5 6 8 7
42 41 42 45 34 34 42 51 43 38 37 41 41 39 35 32 28 25 23 19 18 17 21 22 21 17 15 14 13 13 14 16 18 18 18 17 15 13 12 11 10 9 9 8 7 7 7 10 7
38 39 44 40 37 42 43 49 46 43 40 40 40 40 41 38 33 29 27 23 22 20 19 22 23 20 18 18 16 15 16 17 19 20 20 19 19 16 14 13 13 11 11 11 10 9 9 9 11
38 43 47 45 39 37 40 49 48 44 42 39 41 42 42 36 32 33 32 31 25 23 21 22 24 23 22 22 20 19 18 18 18 19 19 18 18 17 16 16 16 15 14 13 12 11 13 13 11
39 43 44 44 38 42 44 52 50 44 42 41 42 42 38 35 32 34 35 31 29 27 23 23 22 24 25 24 24 23 22 21 19 18 21 20 21 20 19 19 18 17 16 15 14 13 13 15 14
46 36 37 39 40 50 30 52 50 45 47 43 44 39 37 35 36 35 33 36 34 30 25 23 24 24 25 24 27 25 25 24 19 19 20 20 21 21 20 19 19 18 18 17 17 16 15 16 16
42 36 40 40 42 44 44 46 50 35 41 43 38 38 38 32 33 36 34 35 34 32 29 25 26 24 24 25 26 29 29 25 25 23 21 20 21 22 22 21 20 20 20 19 18 17 17 18 18
32 33 35 37 41 52 49 45 52 47 46 47 40 41 40 38 38 33 28 31 34 33 32 27 24 27 23 23 25 28 31 30 30 27 25 24 23 22 22 22 22 21 21 20 19 20 19 18 19
34 39 45 46 45 49 41 41 50 49 51 50 53 47 43 40 42 38 31 29 31 35 34 31 28 28 25 23 25 26 29 30 33 31 30 28 27 25 23 23 24 23 23 22 21 21 21 20 20
31 34 42 51 50 48 38 44 47 39 47 44 43 45 40 42 38 34 30 29 30 36 35 32 30 27 26 27 26 24 26 29 30 31 32 31 29 28 26 25 25 25 24 24 24 24 24 23 23
32 37 36 47 50 51 49 47 49 47 44 40 39 36 36 37 39 35 33 29 28 32 33 34 32 28 27 26 25 29 28 30 31 30 33 33 32 30 30 28 28 27 27 25 24 25 26 26 28
34 30 38 35 44 49 44 45 46 46 39 35 34 27 32 34 35 30 27 27 28 29 31 32 33 34 32 29 31 28 27 27 28 31 33 33 33 31 30 29 28 27 26 26 26 27 26 26 27
28 34 34 34 36 41 41 41 33 39 34 31 35 38 39 35 29 27 26 25 23 24 24 27 30 33 35 33 31 31 29 26 26 27 31 32 32 31 31 31 31 30 29 28 28 28 28 29 29
25 29 30 38 41 37 43 53 32 34 38 41 36 38 33 32 33 34 30 29 28 28 28 29 32 34 34 35 34 33 33 29 27 27 26 26 31 32 33 33 31 30 29 29 29 29 29 30 31
Wind_Direction
299 300 302 328 337 350 342 334 356 352 358 21 26 27 41 47 59 82 104 94 89 88 91 95 87 36 55 47 35 26 33 37 32 28 43 41 39 46 48 40 27 34 40 41 42 43 44 43 46
300 305 330 322 341 345 354 350 351 351 8 18 21 18 23 34 54 76 79 99 87 90 90 85 70 50 47 30 21 8 357 11 23 37 41 57 49 45 52 43 36 41 44 45 45 43 41 43 44
305 314 317 325 337 337 360 346 351 352 3 7 3 18 20 25 50 78 89 97 90 84 94 95 64 47 36 20 27 26 36 40 35 48 56 50 49 49 57 39 35 40 40 43 40 42 39 42 42
327 326 326 325 332 336 343 343 343 345 342 354 6 359 20 35 59 74 93 92 90 83 89 91 70 53 40 38 42 47 50 49 47 52 65 70 67 62 65 55 48 46 44 43 41 44 46 47 40
332 327 323 322 318 334 345 344 342 341 341 344 354 355 3 17 48 79 83 86 89 89 76 81 68 47 44 49 54 51 52 55 46 64 79 79 76 62 62 54 56 51 51 52 53 46 43 40 37
319 325 318 320 321 318 333 341 341 331 344 348 337 345 354 30 41 82 74 85 89 85 89 69 75 58 30 50 49 55 53 53 52 69 80 92 88 73 71 62 59 53 63 65 51 44 42 36 37
317 316 319 312 312 318 326 342 339 336 334 329 346 326 352 15 37 72 67 75 78 85 95 86 59 55 49 23 37 50 62 67 67 75 83 95 89 89 47 67 73 77 71 58 45 42 42 41 38
318 316 310 316 312 312 331 326 336 335 323 331 335 329 335 5 35 41 47 64 78 91 97 102 91 46 52 351 13 44 53 59 71 82 87 89 78 82 67 52 66 70 55 51 55 51 44 35 29
315 303 300 306 314 317 327 323 326 338 334 327 327 326 331 38 53 4 13 36 71 80 101 105 115 106 68 7 320 12 59 46 31 69 81 75 84 87 81 40 35 45 50 57 52 46 37 33 29
301 296 299 301 306 312 319 320 323 321 321 319 322 329 358 19 359 346 301 342 42 84 99 112 130 132 141 316 306 315 344 356 20 24 80 93 106 108 91 46 42 40 41 40 41 41 40 36 25
293 288 295 294 299 310 315 314 319 316 312 316 319 328 335 338 330 312 279 296 308 9 335 146 163 175 205 269 263 289 286 311 328 35 106 107 105 114 102 55 35 35 47 38 35 35 35 32 27
284 288 291 293 294 303 302 308 306 306 309 315 317 324 329 318 316 304 295 280 288 282 287 269 201 227 232 266 264 262 231 203 277 242 160 151 142 136 127 111 93 77 73 61 51 43 46 36 24
281 284 287 292 291 296 301 298 298 298 303 305 310 314 304 300 302 306 296 288 279 280 275 257 231 241 245 260 263 260 251 229 224 232 218 210 171 161 148 137 136 127 117 109 90 73 47 28 14
287 290 290 290 290 292 294 294 297 298 305 302 302 303 298 292 290 294 292 286 272 275 273 258 254 245 256 262 254 261 260 249 233 245 249 219 228 211 215 197 168 157 143 139 94 64 41 13 11
285 281 285 286 290 290 295 287 289 296 298 295 294 298 298 294 288 286 283 275 272 273 272 265 259 252 243 251 251 259 262 260 250 242 242 236 228 243 253 247 232 210 196 185 338 346 348 357 4
280 282 277 283 286 287 290 283 291 297 296 293 294 291 291 290 290 284 283 273 274 274 271 267 258 255 249 248 250 257 262 259 260 256 255 236 236 242 243 248 257 247 260 267 290 308 322 331 341
277 274 277 282 284 286 284 284 290 293 291 290 292 292 289 288 289 288 281 274 269 270 270 267 259 251 248 252 253 252 254 255 258 260 258 248 246 251 252 248 245 243 252 258 266 285 302 310 317
272 276 279 278 288 285 283 280 285 286 287 288 290 291 292 288 284 286 283 270 269 266 268 264 265 257 249 260 258 261 257 257 259 258 259 260 256 255 257 254 244 246 251 254 258 269 285 303 303
276 276 277 281 288 287 283 281 285 286 286 285 286 289 288 286 286 285 285 276 266 265 263 263 261 259 255 256 256 258 251 258 257 258 258 258 261 256 248 255 253 251 249 255 253 269 271 280 300
270 273 275 282 282 289 289 284 283 285 284 284 285 288 290 289 283 280 281 281 272 261 261 261 259 257 253 258 259 263 264 263 260 258 253 247 249 249 248 250 257 254 257 254 249 256 276 281 281
270 271 274 276 283 283 287 284 281 284 282 283 284 287 290 289 288 283 279 277 272 267 258 259 254 255 252 251 262 267 270 271 266 258 255 248 250 249 247 253 254 254 252 251 248 248 253 275 276
268 271 275 277 278 277 281 283 281 283 282 282 284 289 291 292 289 287 282 278 275 269 261 254 254 256 257 252 256 254 256 259 250 253 257 255 249 245 243 245 245 249 253 254 253 255 259 268 273
271 274 273 275 276 277 274 279 278 288 280 276 287 294 296 297 291 287 284 281 276 273 265 258 258 254 257 256 252 256 257 258 267 266 261 256 258 247 244 243 246 246 250 253 252 253 252 261 271
271 277 275 276 275 271 270 270 277 275 278 281 289 293 297 295 295 292 285 286 279 277 273 263 255 256 249 250 252 255 256 257 262 262 261 261 260 256 245 244 245 244 246 245 250 250 251 251 260
263 265 270 271 269 271 277 273 271 277 278 283 283 288 290 294 298 296 295 287 284 279 277 273 265 262 256 250 252 252 255 255 258 259 260 261 263 258 247 246 247 246 245 250 253 252 250 249 254
264 261 264 268 271 275 280 272 275 282 282 284 285 289 291 290 298 300 299 296 289 281 280 279 273 266 261 257 252 249 251 258 257 257 260 260 260 260 258 251 250 249 251 254 258 260 259 259 259
267 263 270 271 273 276 274 275 280 282 283 286 286 293 295 295 295 300 302 301 298 287 286 284 279 275 268 262 255 259 261 259 261 258 260 262 262 262 260 257 255 257 255 253 253 257 260 264 267
260 271 268 269 272 272 276 275 274 275 282 290 287 301 305 309 310 303 308 309 308 299 295 293 287 281 278 274 270 265 258 256 259 264 261 261 262 260 260 257 254 253 254 254 254 259 259 261 265
264 262 265 273 270 275 280 275 281 278 282 285 290 301 304 305 311 312 314 316 319 312 306 305 300 293 285 281 279 273 269 261 255 253 262 260 261 261 259 258 257 256 255 255 257 258 261 259 263
263 264 264 265 268 273 278 276 281 287 282 288 292 299 304 307 310 309 309 309 307 304 306 304 305 303 298 289 285 279 276 271 262 256 251 254 261 262 262 261 258 256 253 253 252 254 259 261 262